Other Public Products
Issued by NWS Charleston, SC

Current Version | Previous Version | Graphics & Text | Print | Product List | Glossary On
Versions: 1 2 3 4 5 6 7 8 9 10 11 12 13 14 15 16 17 18 19 20 21 22 23 24 25 26 27 28 29 30 31 32 33 34 35 36 37 38 39 40 41 42 43 44 45 46 47 48 49 50
607
FPUS82 KCHS 170827
OPUCHS

TEST...KCHS/KSAV Gateway Observations...TEST
National Weather Service Charleston SC
300 AM EST FRI NOV 17 2017

NOTE: "fair" indicates few or no clouds below 12,000 feet with no
significant weather and/or obstructions to visibility.

SCZ050-WAZ558-NCZ071-TXZ119-213-PAZ071-DCZ001-FLZ074-172-MI076-
NYZ176-178-MAZ016-IL014-TNZ027-NJZ106-GAZ044-MD014-170900-

...Gateway Observations for Charleston International...

CITY           SKY/WX    TMP DP  RH WIND       PRES   REMARKS
Chas Airport   PTCLDY    43  43 100 N3        30.12R
Seattle        MOCLDY    42  38  85 S17       29.73R
Charlotte      CLEAR     48  31  51 NE9       30.15S
Dallas DFW     CLOUDY    71  66  84 S16       29.94F
Dallas Love    CLOUDY    70  65  84 S10       29.96S
Philladelphia  MOCLDY    46  29  51 NW13      30.04R
Wash National  MOCLDY    45  30  55 W10       30.14R
Baltimore      PTCLDY    41  30  65 W8        30.10R
Miami          PTCLDY    68  67  96 N5        29.97F
Detroit        CLOUDY    34  27  75 CALM      30.26R
Newark         MOCLDY    43  30  60 W22       29.96R
Laguardia      PTCLDY    44  30  57 NW17G24   29.94R
J F K          PTCLDY    43  30  60 W24G30    29.95R
Boston Logan   PTCLDY    41  33  73 W12       29.72R
Ft. Lauderdale PTCLDY    67  67 100 N7        29.97F
Chicago O`Hare CLOUDY    37  30  75 S8        30.19R WCI  31
Chicago Midway CLOUDY    37  31  78 S9        30.20R WCI  30
Houston Bush   MOCLDY    69  68  96 S6        30.02F
Houston Hobby  PTCLDY    67  67 100 SE5       30.02F
Nashville      PTCLDY    37  34  89 E3        30.19F
Atlanta        CLEAR     43  38  82 NW8       30.13R

$$

GAZ044-118-TXZ119-213-NCZ071-DCZ001-MDZ014-506-PAZ021-071-NJZ106-
NYZ176-178-MAZ106-OHZ011-021-055-MIZ076-KYZ091-ILZ014-INZ047-
MNZ060-ONZ431-170900-

...Gateway Observations for Savannah International...

CITY           SKY/WX    TMP DP  RH WIND       PRES   REMARKS
Savannah Arpt  CLEAR     44  42  93 CALM      30.12R
Atlanta        CLEAR     43  38  82 NW8       30.13R
Charlotte      CLEAR     48  31  51 NE9       30.15S
Dallas DFW     CLOUDY    71  66  84 S16       29.94F
Houston Bush   MOCLDY    69  68  96 S6        30.02F
Wash National  MOCLDY    45  30  55 W10       30.14R
Wash Dulles    MOCLDY    41  30  65 W12       30.13S
Baltimore      PTCLDY    41  30  65 W8        30.10R
Philadelphia   MOCLDY    46  29  51 NW13      30.04R
Newark         MOCLDY    43  30  60 W22       29.96R
Laguardia      PTCLDY    44  30  57 NW17G24   29.94R
J F K          PTCLDY    43  30  60 W24G30    29.95R
Boston         PTCLDY    41  33  73 W12       29.72R
Pittsburg      CLOUDY    37  31  78 NW3       30.19S
Akron          CLOUDY    38  29  70 N7        30.21S WCI  33
Cleveland      CLOUDY    39  30  70 N6        30.26R WCI  35
Cincinnati     CLOUDY    36  30  79 SE13      30.23F WCI  27
Columbus       CLOUDY    37  30  75 CALM      30.26R
Detroit        CLOUDY    34  27  75 CALM      30.26R
Chicago O`Hare CLOUDY    37  30  75 S8        30.19R WCI  31
Minneapolis    CLOUDY    35  29  78 S16G24    29.89F WCI  25
Indianapolis   CLOUDY    35  29  78 E12       30.21F WCI  27
Toronto Canada CLOUDY    30  21  69 N17       30.21R WCI  18

$$




USA.gov is the U.S. government's official web portal to all federal, state and local government web resources and services.